Location: Berlin
(52.5171°N, 13.3759°E)
Time: 01:46:39
(UTC+02:00)

ISS - Visible Passes

Search period start: 22 October 2019 00:00
Search period end: 31 October 2019 23:00
Orbit: 411 x 421 km, 51.6° (Epoch: 21 October)

Date Brightness Start Highest point End Pass type
(mag) Time Alt. Az. Time Alt. Az. Time Alt. Az.
24 Oct -0.6 06:51:38 10° SSE 06:52:55 12° SE 06:54:13 10° ESE visible
26 Oct -1.4 06:49:20 10° SSW 06:52:02 23° SSE 06:54:45 10° E visible
27 Oct -1.1 05:01:27 10° S 05:03:37 16° SE 05:05:47 10° ESE visible
28 Oct -0.8 04:14:38 11° SSE 04:15:13 11° SE 04:16:13 10° ESE visible
28 Oct -2.5 05:48:05 10° SW 05:51:16 39° SSE 05:54:26 10° E visible
29 Oct -2.1 05:01:14 20° SSW 05:02:44 29° SSE 05:05:43 10° E visible
30 Oct -1.4 04:14:50 20° SE 04:14:50 20° SE 04:16:53 10° E visible
30 Oct -3.4 05:47:44 14° WSW 05:50:34 61° SSE 05:53:53 10° E visible
31 Oct -3.1 05:01:13 40° SSW 05:01:57 49° SSE 05:05:13 10° E visible
